Regional Weather Roundup
Issued by NWS Little Rock, AR

Home | Current Version | Previous Version | Text Only | Print | Product List | Glossary On
Versions: 1 2 3 4 5 6 7 8 9 10 11 12 13 14 15 16 17 18 19 20 21 22 23 24 25 26 27 28 29 30 31 32
000
ASUS44 KLZK 201005
RWRLZK

WEATHER ROUNDUP FOR ARKANSAS
NATIONAL WEATHER SERVICE LITTLE ROCK AR
400 AM CST MON NOV 20 2017

NOTE: "FAIR" INDICATES FEW OR NO CLOUDS BELOW 12,000 FEET WITH NO
SIGNIFICANT WEATHER AND/OR OBSTRUCTIONS TO VISIBILITY.

ARZ001-003-010-029-201100-
NORTHWEST ARKANSAS

CITY           SKY/WX    TMP DP  RH WIND       PRES   REMARKS
FAYETTEVILLE   CLOUDY    27  27 100 CALM      30.16F
FORT SMITH     CLOUDY    36  32  85 CALM      30.19F
HARRISON       CLEAR     34  26  72 SE5       30.16F WCI  30
BENTONVILLE    CLOUDY    35  26  69 S5        30.16F WCI  31
ROGERS         CLOUDY    35  27  72 SE5       30.15F WCI  31
SILOAM SPGS    CLOUDY    38  26  62 S7        30.15F
HIGHFILL       CLOUDY    32  26  78 S3        30.15F
$$

ARZ004-005-016-201100-
NORTH CENTRAL ARKANSAS

CITY           SKY/WX    TMP DP  RH WIND       PRES   REMARKS
BATESVILLE     CLEAR     31  27  85 CALM      30.22F
FLIPPIN        CLEAR     26  24  92 CALM      30.19F
MTN HOME       CLEAR     31  25  78 S6        30.17F WCI  25
$$

ARZ040-041-201100-
WEST CENTRAL ARKANSAS

CITY           SKY/WX    TMP DP  RH WIND       PRES   REMARKS
MENA           CLOUDY    30  30 100 CALM      30.20F
MOUNT IDA      CLOUDY    29  28  96 CALM      30.19S
$$

ARZ009-017-025-026-028-201100-
NORTHEAST ARKANSAS

CITY           SKY/WX    TMP DP  RH WIND       PRES   REMARKS
CORNING        FAIR      30  28  93 CALM      30.23F
JONESBORO      PTCLDY    29  26  89 CALM      30.24S
NEWPORT        CLEAR     30  28  92 SW3       30.24S
WALNUT RIDGE     N/A     29  26  89 SE3       30.23S
BLYTHEVILLE    CLEAR     33  27  78 S5        30.25R WCI  29
$$

ARZ022-023-033-042-044-201100-
CENTRAL ARKANSAS

CITY           SKY/WX    TMP DP  RH WIND       PRES   REMARKS
LITTLE ROCK    PTCLDY    32  32 100 CALM      30.23F
N LITTLE ROCK    N/A     41  25  52 CALM      30.25S
JACKSONVILLE   CLOUDY    27  23  87 CALM      30.22S
SEARCY         CLEAR     27  27 100 CALM      30.23F
HOT SPRINGS    CLEAR     31  30  96 CALM      30.22F
RUSSELLVILLE   CLOUDY    29  28  96 CALM      30.20F
CLINTON        FAIR      27  27 100 CALM      30.23S
$$

ARZ036-201100-
EAST ARKANSAS

CITY           SKY/WX    TMP DP  RH WIND       PRES   REMARKS
WEST MEMPHIS   CLEAR     28  27  96 CALM      30.24S
$$

ARZ050-053-066-070-073-201100-
SOUTHWEST ARKANSAS

CITY           SKY/WX    TMP DP  RH WIND       PRES   REMARKS
ARKADELPHIA    FAIR      26  23  88 CALM      30.24F
CAMDEN         CLOUDY    30  27  86 CALM      30.24S
TEXARKANA      CLOUDY    38  34  85 CALM      30.21F
EL DORADO      PTCLDY    31  31 100 CALM      30.24S
DE QUEEN       CLOUDY    29  29 100 CALM      30.20S
$$

ARZ056-057-069-201100-
SOUTHEAST ARKANSAS

CITY           SKY/WX    TMP DP  RH WIND       PRES   REMARKS
PINE BLUFF     CLEAR     32  29  88 CALM      30.24S
STUTTGART      CLEAR     36  32  85 SE6       30.23F
MONTICELLO     PTCLDY    34  28  79 CALM      30.24S

$$






USA.gov is the U.S. government's official web portal to all federal, state and local government web resources and services.